Torna al catalogo

CZ-6A DEB

AttivoSSO
NORAD 56645·DEBRIS·🇨🇳 China

Lanciato Nov 11, 2022 da Taiyuan Satellite Launch Center

Loading…

Prossimi Passaggi (prossime 24 ore)

TLE

In scadenzaSource: Space-Track

Epoca: Sep 5, 2026, 05:58 UTC

1 56645U 22151AFV 26248.24861780  .00000908  00000-0  45172-3 0  9994
2 56645  98.8037 254.6128 0042276 110.8287 249.7424 14.19026488174297

Traccia CZ-6A DEB in tempo reale con AllMySat

Download on the App Store